Pagina principală
METAR-TAF:

METAR-TAF

Aeroporturi :

Medicine Lodge Airport

Medicine Lodge, Kansas, Statele Unite ale Americii

Latitudine: 37-17-02N, longitudine: 098-33-10W, elevație: 469 m

Observații meteo curente

Raportul a fost făcut în urmă cu 58 de minute, la 04:56 UTC
Vânt 6 kt de la Est/Sud-est
Temperatură 24°C
Umiditate 65%
Presiune 1013 hPa

METAR: KP28 190456Z AUTO 12006KT 24/17 A2991 RMK AO1 SLP111 T02440167 $

Ora: 00:54 (05:54 UTC)


TAF: lipsă

Observații și prognoze meteo pentru peste 4.000 de aeroporturi (rapoarte METAR și TAF).

Stațiile disponibile sunt reprezentate pe hartă prin puncte galbene și roșii.

Țineți indicatorul mouse-ului pe punctul dorit pentru a vedea denumirea stației.

Apoi, faceți clic pentru a vedea observațiile și prognozele meteorologice.

Pentru a schimba harta: Pentru mărire, faceți clic pe butoanele verzi cu cruce neagră; pentru micșorare, pe butonul verde cu o liniuță; pentru hărți învecinate, pe săgețile verzi.


METAR-TAF: